Погода в Курашиме

Россия / Пермский край     57°39′16″N   56°36′38″E
темп.,
°C
ветер,
м/с
пор.,
м/с
влажн.,
%
обл.,
%
осадки,
мм/ч
давл.,
гПа
погр.,
м
11 мая, вт
вт1123:00+15ююв115323 0.0 102311
02:00+13ююв2263100 0.0 102316
05:00+12ююв1168100 0.0 102411
08:00+15ююв1158100 0.0 1025121
11:00+20юв0144100 0.0 1026600
14:00+24зсз13375 0.0 10261482
17:00+22ссз3443100 0.0 10261045
20:00+19св24665 0.0 1027202
12 мая, ср
ср1223:00+14ссв22815 0.0 102818
02:00+12ссв22875 0.0 102916
05:00+11ссв118940 0.0 103010
08:00+15ссв236343 0.0 1030281
11:00+19с22405 0.0 1030945
14:00+22ссз222841 0.0 10291514
17:00+23сз23275 0.0 10281530
20:00+19ссз1140100 0.0 102811
13 мая, чт
чт1323:00+15с115054 0.0 102811
02:00+13зсз005893 0.0 102910
05:00+12зсз006169 0.0 102910
08:00+17ссз01496 0.0 1029148
11:00+23с12363 0.0 1028970
14:00+25сз12300 0.0 10271704
17:00+25сз12295 0.0 10271812
20:00+22св01445 0.0 102611
14 мая, пт
пт1423:00+17ю115656 0.0 102611
02:00+15ю116360 0.0 102610
05:00+15ююз22675 0.0 102612
08:00+20ююз23530 0.0 1026212
11:00+25юз353234 0.0 10251691
14:00+27юз4530100 0.0 10242155
17:00+26юз45315 0.0 10232067
20:00+23ююз37455 0.0 1022227
15 мая, сб
сб1523:00+18ююз3116086 0.0 1022215
02:00+17ююз3106276 0.0 1022189
05:00+16юз276896 0.0 1022140
08:00+20зюз37565 0.1 1022298
11:00+25зюз47375 0.1 10211172
14:00+28зюз692799 0.0 10202052
17:00+28з582871 0.0 10192187
20:00+24юз494240 0.0 1019391